Location: Conflandey
(47.7287°N, 6.0456°E)
Time: 11:53:02
(UTC+00:00)

Daily predictions for brighter satellites

Satellite Brightness Start Highest point End
(mag) Time Altitude Azimuth Time Altitude Azimuth Time Altitude Azimuth
Meteor 1-4 Rocket 4.4 16:59:31 10° ESE 17:00:50 12° E 17:02:10 10° ENE
Cosmos 1980 Rocket 2.4 16:55:45 10° SSW 17:01:25 80° WNW 17:07:10 10° NNE
Cosmos 1000 Rocket 4.5 16:55:37 10° N 17:01:47 67° E 17:07:58 10° SSE
Iridium 4 Rocket 4.0 17:00:25 10° NNE 17:04:39 33° E 17:09:13 10° SE
CZ-2C R/B 3.5 17:01:38 10° NNE 17:06:30 30° E 17:11:17 10° SSE
Cosmos 2369 4.4 17:01:07 10° SW 17:06:43 59° WNW 17:12:21 10° NNE
PSLV R/B 3.8 17:02:46 10° SSE 17:06:47 79° ENE 17:10:43 10° N
Cosmos 2227 4.2 17:01:14 10° NNW 17:07:02 77° ENE 17:12:47 10° SSE
SKYMED 2 4.4 17:04:03 10° NE 17:07:53 29° E 17:11:40 10° SSE
PAYLOAD B 4.2 17:06:04 10° SSE 17:11:35 77° ENE 17:17:10 10° NNW
Cosmos 1455 Rocket 3.1 17:07:54 10° S 17:12:15 59° E 17:16:39 10° NNE
YAOGAN 1 3.9 17:10:22 10° ESE 17:13:33 20° ENE 17:16:45 10° NNE
Cosmos 1892 4.3 17:12:45 10° NNE 17:15:05 16° ENE 17:17:23 10° ESE
Cosmos 1697 Rocket 4.1 17:11:26 10° WSW 17:16:39 37° NW 17:21:53 10° NNE
CZ-2D R/B 3.2 17:17:57 10° SSE 17:21:48 80° ENE 17:25:42 10° N
Landsat 5 4.1 17:18:27 10° NNE 17:22:36 38° E 17:26:47 10° SSE
Cosmos 1821 Rocket 4.2 17:16:51 10° S 17:23:15 86° W 17:29:37 10° N
Cosmos 1328 3.8 17:20:09 10° N 17:24:11 65° E 17:28:12 10° SSE
Cosmos 304 Rocket 4.4 17:21:00 10° SSE 17:25:15 33° ESE 17:29:32 10° NE
NOSS 2 (A) 4.1 17:23:20 10° NW 17:26:09 72° NE 17:28:37 10° SE
Cosmos 1544 Rocket 3.8 17:22:24 10° SSE 17:26:42 49° E 17:31:01 10° NNE
NOSS 2-3 (E) 3.9 17:24:02 10° SSW 17:27:50 44° ESE 17:32:13 10° NE
Cosmos 1844 Rocket 3.3 17:22:42 10° NNW 17:27:51 36° NE 17:32:56 10° ESE
USA 215 3.4 17:21:57 10° NE 17:28:30 78° NNW 17:35:02 10° WSW
MOS 1-B Rocket 4.3 17:22:52 10° NNE 17:29:09 46° E 17:34:41 10° S
Cosmos 1908 4.1 17:25:59 10° SSW 17:29:45 52° WNW 17:33:33 10° N
USA 229 DEB 4.2 17:27:14 10° S 17:32:54 35° ESE 17:38:54 10° NE
USA 229 4.2 17:27:22 10° S 17:33:01 35° ESE 17:38:59 10° NE
Lacrosse 4 Rocket 1.6 17:28:49 10° NNW 17:33:04 56° NE 17:37:23 10° SE
Cosmos 1408 3.9 17:30:28 10° NNE 17:33:11 20° ENE 17:34:31 16° E
Cosmos 1934 Rocket 3.9 17:28:13 10° S 17:34:13 65° E 17:40:13 10° NNE
Meteor 2-10 Rocket 4.2 17:30:53 10° SSE 17:35:52 35° E 17:40:42 10° NNE
Cosmos 1953 3.3 17:32:34 10° SSW 17:36:31 52° WNW 17:40:31 10° N
NOSS 8 (F) 4.1 17:35:56 10° SW 17:39:20 82° SE 17:41:40 15° NE
Okean O Rocket 1.5 17:36:37 10° SSE 17:40:57 76° ENE 17:45:19 10° N
H-2A R/B 2.3 17:36:55 10° SSE 17:42:20 83° WSW 17:47:49 10° NNW
deb Chang Zheng 4 4.0 17:41:48 10° S 17:45:57 63° WSW 17:50:10 10° NNW
Cosmos 332 Rocket 3.9 17:41:46 10° S 17:46:30 51° ESE 17:51:13 10° NNE
X-37B 1.9 17:46:13 10° W 17:48:49 29° SSW 17:50:32 16° SE
ATLAS 3B R/B 4.0 17:43:54 10° W 17:49:50 32° NNW 17:56:01 10° NE
Cosmos 1602 Rocket 3.6 17:46:36 10° N 17:50:52 52° ENE 17:55:06 10° SSE
Spot 2 4.1 17:47:09 10° SSE 17:51:14 57° ENE 17:55:35 10° N
Cosmos 2278 Rocket 3.9 17:48:18 10° N 17:51:21 14° NE 17:52:43 13° NE
SL-8 R/B 3.7 17:48:20 10° W 17:53:08 87° NNW 17:56:02 24° E
ATLAS 5 CENTAUR R/B 2.9 17:50:52 10° WSW 17:54:30 33° NW 17:58:39 10° NNE
NOSS 3-1 (A) 3.5 17:50:13 10° SSW 17:55:14 47° ESE 17:59:58 15° NE
COSMO-SKYMED 1 2.5 17:51:45 10° NNE 17:56:08 89° ESE 18:00:28 10° SSW
Okean 1-7 Rocket 4.0 17:53:40 10° NNW 17:58:03 64° W 18:02:27 10° S
Cosmos 1300 2.9 17:55:06 10° SSW 17:58:53 74° W 18:02:43 10° N
SL-16 R/B 2.1 17:53:48 10° SSW 17:59:29 85° ESE 18:05:12 10° NNE
HJ-1C 3.7 18:00:33 37° E 18:00:55 39° ENE 18:04:00 10° N
Cosmos 1825 3.6 17:57:56 10° NNE 17:59:51 20° NE 17:59:51 20° NE
Cosmos 2123 Rocket 4.3 17:55:16 10° NNW 18:01:36 73° W 18:07:51 10° S
USA 267 4.0 17:57:13 10° SSE 18:03:33 52° SW 18:09:56 10° WNW
Okean-O 3.2 18:02:47 27° ESE 18:04:18 35° ENE 18:08:21 10° N
CZ-4 R/B 1.3 18:02:42 10° SSE 18:06:40 62° ENE 18:10:46 10° N
BREEZE-M R/B 2.5 18:03:35 10° WNW 18:07:03 83° SSW 18:09:11 28° ESE
CENTAUR R/B 4.2 18:01:56 10° NW 18:08:02 27° NNE 18:12:34 17° ENE
IRAS Rocket 4.2 18:04:53 10° NNE 18:10:24 61° ESE 18:15:50 10° S
Cosmos 2322 Rocket 2.1 18:06:04 10° SSW 18:11:40 82° ESE 18:17:19 10° NNE
Cosmos 371 Rocket 3.9 18:08:07 10° SW 18:12:54 57° WNW 18:17:45 10° NNE
Cosmos 1825 Rocket 3.9 18:09:23 10° N 18:13:27 38° ENE 18:13:45 38° E
NOSS 2-3 (D) 3.5 18:11:15 10° SW 18:15:19 81° NW 18:18:26 21° NE
Cosmos 2251 Rocket 3.4 18:12:42 10° NNW 18:17:59 87° ENE 18:23:13 10° SSE
Cosmos 407 Rocket 3.8 18:13:17 10° NNW 18:18:25 46° ENE 18:20:05 35° ESE
Cosmos 2219 Rocket 3.8 18:14:04 10° SSE 18:15:45 17° SE 18:15:45 17° SE
SL-08 RB Rocket 3.7 18:14:10 10° SSE 18:18:44 85° WSW 18:23:23 10° NNW
Cosmos 1140 Rocket 3.8 18:14:18 10° NNW 18:19:16 44° ENE 18:20:32 37° E
NOSS 3-1 (C) 3.4 18:14:09 10° SW 18:19:29 76° NW 18:25:08 13° NE
Cosmos 1844 3.7 18:14:30 10° NNW 18:20:19 69° ENE 18:23:55 23° SE
Cosmos 1758 Rocket 3.4 18:16:04 10° N 18:20:24 70° E 18:24:09 14° SSE
Cosmos 2360 Rocket 2.1 18:15:47 10° S 18:21:18 61° ESE 18:26:04 15° NE
Cosmos 1459 Rocket 4.4 18:18:44 10° SSE 18:24:20 37° E 18:29:53 10° NNE
Cosmos 2228 3.1 18:20:09 10° S 18:24:23 51° E 18:28:40 10° NNE
Tiangong 2.8 18:21:55 10° WSW 18:24:34 24° S 18:24:40 24° S
H-2A R/B 2.7 18:20:25 10° S 18:24:41 70° WSW 18:28:49 10° NNW
Cosmos 2100 Rocket 4.3 18:21:14 10° SSE 18:27:07 43° E 18:33:05 10° NNE
ARGOS 3.8 18:22:34 10° S 18:27:51 56° W 18:33:13 10° NNW
NOSS 2-3 (C) 3.9 18:23:53 10° SW 18:27:57 62° NW 18:30:52 22° NNE
Cosmos 2333 Rocket 2.8 18:23:18 10° S 18:27:35 34° SE 18:27:35 34° SE
MetOp-A 4.1 18:26:08 25° SE 18:29:13 60° ENE 18:34:31 10° N
DMSP B5D1-3 4.4 18:24:47 10° NNE 18:29:55 66° ESE 18:35:03 10° S
Meteor 1-4 Rocket 3.4 18:32:00 10° SSW 18:35:21 46° WNW 18:38:43 10° N
CZ-4C R/B 4.3 18:32:36 10° N 18:35:45 37° WNW 18:38:47 10° SW
Cosmos 220 Rocket 4.2 18:33:28 10° SSW 18:37:53 73° WNW 18:41:02 19° NNE
In-Cosmos 22 Rocket 4.3 18:33:24 10° NNW 18:38:42 70° W 18:43:58 10° S
Cosmos 2173 Rocket 4.1 18:33:22 10° SSE 18:39:17 49° E 18:45:19 10° NNE
Cosmos 44 3.4 18:34:53 10° SW 18:40:19 86° SE 18:42:36 36° NE
CSL-04 Debris 4.0 18:44:16 36° SSE 18:46:34 77° ENE 18:52:00 10° NNW
CZ-2C R/B 3.7 18:41:38 10° N 18:46:58 46° WNW 18:52:11 10° SW
Cosmos 1943 Rocket 4.4 18:46:39 10° NNE 18:47:58 11° NNE 18:47:58 11° NNE
YAOGAN 1 3.5 18:45:10 10° S 18:49:20 48° W 18:53:33 10° NNW
IRS-1C Rocket 4.2 18:45:20 12° S 18:50:19 75° WSW 18:55:37 10° NNW
Cosmos 2344 4.5 18:41:18 10° NW 18:50:29 76° SW 19:03:22 10° SSE
H-2A R/B 1.9 18:51:00 77° SW 18:51:00 77° SW 18:54:56 10° SSW
Cosmos 1892 3.7 18:47:23 10° NNW 18:50:59 44° W 18:53:16 20° SSW
CSL-04 Rocket 3.6 18:55:59 45° SSE 18:57:48 86° ENE 19:03:25 10° NNW
Cosmos 1190 Rocket 3.9 18:57:14 10° NNW 19:02:03 69° NNE 19:02:03 69° NNE
Cosmos 1408 4.4 19:05:01 10° NNW 19:08:10 29° W 19:08:49 27° WSW
USA 215 4.0 19:08:28 30° NE 19:11:05 43° NNW 19:17:10 10° W
Lacrosse 4 Rocket 4.0 19:08:19 10° WNW 19:11:23 19° WSW 19:14:28 10° SSW
Cosmos 1844 Rocket 3.7 19:06:35 10° NW 19:11:49 43° WSW 19:15:10 21° SSW
Orbus 7S? 4.5 19:08:46 10° NW 19:15:52 48° SW 19:16:02 48° SW
USA 229 DEB 4.0 19:17:09 10° WSW 19:23:30 59° NW 19:26:38 32° NNE
USA 229 4.0 19:17:15 10° WSW 19:23:36 59° NW 19:26:42 33° NNE
Cosmos 2278 Rocket 3.3 19:31:10 10° NNW 19:34:34 35° N 19:34:34 35° N
ATLAS 5 CENTAUR R/B 4.2 19:38:16 10° NW 19:40:37 14° N 19:40:44 14° N
Okean-O 4.5 19:40:22 26° WSW 19:40:50 27° W 19:44:38 10° NW
CZ-4 R/B 4.5 19:40:02 10° WSW 19:42:05 14° W 19:44:10 10° WNW
ATLAS 3B R/B 4.5 19:37:42 10° NW 19:42:47 21° N 19:44:43 19° NNE
SL-16 R/B 4.4 19:40:03 10° W 19:44:21 22° NW 19:48:39 10° N
NOSS 3-1 (A) 4.3 19:40:56 10° WSW 19:46:10 42° NW 19:47:27 37° N
Cosmos 2322 Rocket 4.3 19:52:07 10° W 19:56:25 22° NW 20:00:35 11° N
CENTAUR R/B 3.6 19:53:01 10° NW 19:59:45 49° NNE 19:59:45 49° NNE
Cosmos 2219 Rocket 4.4 19:56:31 10° SW 19:57:35 16° SW 19:57:35 16° SW
NOSS 3-2 (A) 4.4 19:58:08 10° NW 20:03:52 51° N 20:03:52 51° N
Cosmos 2360 Rocket 4.0 20:00:55 10° WSW 20:05:44 28° NW 20:07:53 22° NNW
Cosmos 2333 Rocket 4.0 20:07:11 10° SW 20:09:42 25° WSW 20:09:42 25° WSW
